EW4214 Weather Reports


time (UTC)temp
C
wind
direction
speed
KPH
gust
KPH
rain 1hr
cm
rain 24hr
cm
rain mn
cm
humidity
%
barometer
mb
20260905001810 30 242 6.4 9.7 0.00 0.00 0.00 65 1008.8
20260905000325 30 245 1.6 6.4 0.00 0.00 0.00 66 1008.6
20260904235808 30 253 1.6 9.7 0.00 0.00 0.00 66 1008.5
20260904234327 30 336 0.0 8.0 0.00 0.00 0.00 65 1008.4
20260904233323 30 226 1.6 8.0 0.00 0.00 0.00 65 1008.3
20260904232322 30 225 3.2 6.4 0.00 0.00 0.00 65 1008.0
20260904231322 30 170 1.6 8.0 0.00 0.00 0.00 65 1008.1
20260904230321 30 219 4.8 8.0 0.00 0.00 0.00 65 1008.0
20260904225321 30 224 0.0 4.8 0.00 0.00 0.00 65 1008.1
20260904224320 30 0 0.0 6.4 0.00 0.00 0.00 65 1007.9
20260904223321 30 51 0.0 4.8 0.00 0.00 0.00 65 1007.9
20260904222320 30 209 0.0 6.4 0.00 0.00 0.00 65 1007.9
20260904221319 30 226 3.2 3.2 0.00 0.00 0.00 65 1007.7
20260904220319 30 233 0.0 6.4 0.00 0.00 0.00 65 1007.6
20260904215318 30 239 3.2 6.4 0.00 0.00 0.00 64 1007.5
20260904214318 30 118 0.0 6.4 0.00 0.00 0.00 64 1007.4
20260904213317 30 242 3.2 6.4 0.00 0.00 0.00 64 1007.3
20260904212317 30 247 3.2 4.8 0.00 0.00 0.00 64 1007.2
20260904211805 30 214 0.0 6.4 0.00 0.00 0.00 64 1007.1
20260904210316 30 49 0.0 8.0 0.00 0.00 0.00 64 1007.1
20260904205316 30 197 1.6 8.0 0.00 0.00 0.00 64 1007.0
20260904204315 30 227 0.0 9.7 0.00 0.00 0.00 63 1007.0
20260904203313 30 246 1.6 6.4 0.00 0.00 0.00 63 1007.1
20260904202313 31 234 6.4 6.4 0.00 0.00 0.00 63 1007.2
20260904201312 31 239 1.6 6.4 0.00 0.00 0.00 63 1007.4
20260904200312 31 236 3.2 6.4 0.00 0.00 0.00 63 1007.3
20260904195312 31 278 0.0 6.4 0.00 0.00 0.00 64 1007.4
20260904194756 31 169 3.2 9.7 0.00 0.00 0.00 64 1007.6
20260904193315 31 181 4.8 6.4 0.00 0.00 0.00 64 1007.5
20260904192309 31 218 0.0 8.0 0.00 0.00 0.00 64 1007.6
20260904191309 31 126 0.0 6.4 0.00 0.00 0.00 64 1007.8
20260904190743 31 246 0.0 6.4 0.00 0.00 0.00 64 1007.9
20260904185308 31 268 1.6 8.0 0.00 0.00 0.00 64 1007.9
20260904184305 31 275 1.6 4.8 0.00 0.00 0.00 64 1008.0
20260904183306 31 218 3.2 4.8 0.00 0.00 0.00 64 1008.0
20260904182306 31 218 3.2 4.8 0.00 0.00 0.00 64 1008.0
20260904181306 31 162 1.6 3.2 0.00 0.00 0.00 64 1008.0
20260904180305 31 229 3.2 6.4 0.00 0.00 0.00 64 1008.1
20260904175306 31 252 4.8 8.0 0.00 0.00 0.00 64 1008.2
20260904174437 31 338 3.2 6.4 0.00 0.00 0.00 64 1008.2
20260904173953 31 296 0.0 6.4 0.00 0.00 0.00 63 1008.2
20260904172430 31 202 0.0 8.0 0.00 0.00 0.00 63 1008.2
20260904171427 31 269 1.6 9.7 0.00 0.00 0.00 63 1008.2
20260904170423 31 89 0.0 4.8 0.00 0.00 0.00 63 1008.4
20260904165419 31 20 0.0 4.8 0.00 0.00 0.00 63 1008.5
20260904164416 31 283 0.0 4.8 0.00 0.00 0.00 64 1008.6
20260904163418 31 232 0.0 6.4 0.00 0.00 0.00 64 1008.6
20260904162919 31 231 3.2 3.2 0.00 0.00 0.00 63 1008.8
20260904161407 31 188 0.0 6.4 0.00 0.00 0.00 63 1008.9
20260904160401 31 257 3.2 6.4 0.00 0.00 0.00 63 1008.9
20260904155401 31 233 0.0 6.4 0.00 0.00 0.00 63 1008.9
20260904154420 31 256 3.2 6.4 0.00 0.00 0.00 63 1009.0
20260904154358 31 263 0.0 6.4 0.00 0.00 0.00 63 1009.0
20260904152351 31 246 4.8 6.4 0.00 0.00 0.00 63 1009.0
20260904151347 31 83 0.0 6.4 0.00 0.00 0.00 64 1008.9
20260904150902 31 261 0.0 4.8 0.00 0.00 0.00 64 1009.1
20260904145343 31 208 0.0 8.0 0.00 0.00 0.00 64 1009.1
20260904144349 31 294 0.0 6.4 0.00 0.00 0.00 64 1009.0
20260904143348 32 229 0.0 4.8 0.00 0.00 0.00 64 1008.8
20260904142338 32 233 0.0 4.8 0.00 0.00 0.00 64 1008.9
20260904141856 32 171 1.6 4.8 0.00 0.00 0.00 64 1008.7
20260904141339 32 240 0.0 4.8 0.00 0.00 0.00 64 1008.8
20260904135356 32 225 0.0 3.2 0.00 0.00 0.00 64 1008.5
20260904135337 32 256 0.0 3.2 0.00 0.00 0.00 64 1008.5
20260904133329 32 307 0.0 3.2 0.00 0.00 0.00 63 1008.2
20260904132324 32 307 1.6 4.8 0.00 0.00 0.00 63 1008.1
20260904131328 32 315 0.0 6.4 0.00 0.00 0.00 63 1008.0
20260904130316 32 266 3.2 4.8 0.00 0.00 0.00 63 1008.0
20260904125814 32 259 1.6 6.4 0.00 0.00 0.00 63 1007.9
20260904124809 32 241 3.2 8.0 0.00 0.00 0.00 62 1007.9
20260904123304 32 252 6.4 9.7 0.00 0.00 0.00 62 1007.7
20260904122306 32 265 4.8 8.0 0.00 0.00 0.00 60 1007.4
20260904121304 32 293 0.0 6.4 0.00 0.00 0.00 60 1007.1
20260904121250 32 277 3.2 8.0 0.00 0.00 0.00 59 1006.9
20260904115306 32 274 0.0 6.4 0.00 0.00 0.00 59 1006.8
20260904114303 32 280 3.2 6.4 0.00 0.00 0.00 59 1006.8
20260904113304 32 327 3.2 6.4 0.00 0.00 0.00 59 1006.4
20260904112306 32 282 4.8 8.0 0.00 0.00 0.00 58 1006.4
20260904111304 32 296 3.2 8.0 0.00 0.00 0.00 58 1006.2
20260904110304 32 265 4.8 8.0 0.00 0.00 0.00 58 1005.9
20260904105306 32 307 3.2 6.4 0.00 0.00 0.00 58 1005.7
20260904104304 32 326 3.2 12.9 0.00 0.00 0.00 58 1005.8
20260904103303 32 284 4.8 11.3 0.00 0.00 0.00 58 1005.5
20260904102307 32 300 3.2 14.5 0.00 0.00 0.00 57 1005.3
20260904101304 32 276 9.7 16.1 0.00 0.00 0.00 57 1005.2
20260904100304 32 311 8.0 14.5 0.00 0.00 0.00 57 1005.3
20260904095308 32 335 4.8 11.3 0.00 0.00 0.00 57 1005.3
20260904094305 32 332 6.4 14.5 0.00 0.00 0.00 57 1005.1
20260904093304 32 271 3.2 17.7 0.00 0.00 0.00 56 1005.0
20260904092306 32 255 12.9 12.9 0.00 0.00 0.00 56 1004.8
20260904091304 32 277 4.8 12.9 0.00 0.00 0.00 56 1004.8
20260904090304 32 307 4.8 11.3 0.00 0.00 0.00 58 1004.7
20260904090231 32 229 9.7 17.7 0.00 0.00 0.00 58 1004.9
20260904084304 32 305 6.4 17.7 0.00 0.00 0.00 59 1004.9
20260904083304 32 302 3.2 11.3 0.00 0.00 0.00 59 1005.1
20260904082305 32 287 8.0 12.9 0.00 0.00 0.00 60 1005.2
20260904081747 32 258 8.0 14.5 0.00 0.00 0.00 60 1005.3
20260904080709 32 273 3.2 11.3 0.00 0.00 0.00 61 1005.8
20260904080444 32 301 1.6 11.3 0.00 0.00 0.00 61 1005.6
20260904075232 32 245 6.4 9.7 0.00 0.00 0.00 62 1005.9
20260904073304 32 328 3.2 20.9 0.00 0.00 0.00 62 1006.0
20260904072306 32 252 8.0 12.9 0.00 0.00 0.00 62 1006.2
20260904072225 32 246 3.2 12.9 0.00 0.00 0.00 63 1006.2
20260904070304 32 278 1.6 11.3 0.00 0.00 0.00 63 1006.3
20260904065306 31 251 6.4 11.3 0.00 0.00 0.00 63 1006.5
20260904064305 31 294 1.6 12.9 0.00 0.00 0.00 63 1006.8
20260904063304 31 293 4.8 14.5 0.00 0.00 0.00 63 1007.1
20260904062306 31 295 3.2 17.7 0.00 0.00 0.00 63 1007.1
20260904061743 31 295 3.2 14.5 0.00 0.00 0.00 63 1007.3
20260904060306 31 301 4.8 16.1 0.00 0.00 0.00 62 1007.5
20260904055306 31 293 3.2 11.3 0.00 0.00 0.00 63 1007.6
20260904054304 31 293 4.8 12.9 0.00 0.00 0.00 64 1007.8
20260904053304 31 251 3.2 14.5 0.00 0.00 0.00 63 1007.7
20260904052437 31 254 4.8 14.5 0.00 0.00 0.00 64 1007.9
20260904051942 31 286 3.2 11.3 0.00 0.00 0.00 64 1008.0
20260904050936 31 293 6.4 14.5 0.00 0.00 0.00 63 1008.3
20260904045421 31 261 8.0 22.5 0.00 0.00 0.00 63 1008.4
20260904044416 31 350 11.3 20.9 0.00 0.00 0.00 64 1008.5
20260904043413 31 253 4.8 14.5 0.00 0.00 0.00 64 1008.6
20260904042410 31 254 11.3 17.7 0.00 0.00 0.00 64 1008.7
20260904041409 31 274 6.4 12.9 0.00 0.00 0.00 64 1008.8
20260904040405 31 242 8.0 14.5 0.00 0.00 0.00 65 1008.9
20260904035406 31 290 6.4 17.7 0.00 0.00 0.00 64 1008.9
20260904034403 30 269 4.8 12.9 0.00 0.00 0.00 65 1009.2
20260904033400 30 264 4.8 11.3 0.00 0.00 0.00 65 1009.1
20260904032358 30 286 3.2 12.9 0.00 0.00 0.00 66 1009.2
20260904031911 30 325 3.2 16.1 0.00 0.00 0.00 66 1009.1
20260904030344 30 257 6.4 14.5 0.00 0.00 0.00 67 1009.2
20260904025853 30 246 6.4 12.9 0.00 0.00 0.00 66 1009.3
20260904024335 30 278 3.2 14.5 0.00 0.00 0.00 66 1009.3
20260904023330 30 260 8.0 12.9 0.00 0.00 0.00 68 1009.4
20260904022328 30 228 9.7 14.5 0.00 0.00 0.00 68 1009.4
20260904021325 30 338 3.2 11.3 0.00 0.00 0.00 68 1009.3
20260904020319 30 331 1.6 16.1 0.00 0.00 0.00 69 1009.4
20260904015317 30 331 3.2 14.5 0.00 0.00 0.00 69 1009.4
20260904014314 30 283 3.2 12.9 0.00 0.00 0.00 68 1009.4
20260904013309 30 323 3.2 8.0 0.00 0.00 0.00 69 1009.2
20260904012306 29 18 1.6 9.7 0.00 0.00 0.00 69 1009.1
20260904011300 29 266 4.8 11.3 0.00 0.00 0.00 69 1008.9
20260904010258 29 295 3.2 11.3 0.00 0.00 0.00 70 1008.8
20260904005253 29 217 3.2 11.3 0.00 0.00 0.00 69 1008.6
20260904004249 29 351 1.6 12.9 0.00 0.00 0.00 70 1008.5
20260904003248 29 242 8.0 9.7 0.00 0.00 0.00 69 1008.5
20260904002243 29 239 4.8 8.0 0.00 0.00 0.00 69 1008.3